Location: Unspecified
(40.7945°N, 0.0000°E)
Time: 01:41:28
(UTC+00:00)

Altair - Pass Details

Date: 28 January 2021
Orbit: 1501 x 1682 km, 47.2° (Epoch: 01 March)

Event Time Altitude Azimuth Distance (km) Brightness Sun altitude
Rises 09:32:09 0° 297° (WNW) 4,934 9.6 20.3°
Reaches altitude 10° 09:35:19 10° 297° (WNW) 3,948 9.2 20.7°
Maximum altitude 09:45:32 84° 211° (SSW) 1,686 8.2 21.9°
Drops below altitude 10° 09:55:33 10° 125° (SE) 3,878 11.1 23.0°
Sets 09:58:38 0° 124° (SE) 4,842 11.3 23.4°
